| time (UTC) | temp F | wind direction | speed knots | gust knots | rain 1hr in | rain 24hr in | rain mn in | humidity % | barometer mb |
| 20260905235246 | 57 | 0 | 15.6 | 21.7 | 0.00 | 0.01 | 0.00 | 71 | 1034.2 |
| 20260905233849 | 59 | 9 | 6.1 | 7.8 | 0.00 | 0.01 | 0.00 | 70 | 1034.2 |
| 20260905232553 | 59 | 358 | 9.6 | 13.9 | 0.00 | 0.01 | 0.00 | 68 | 1034.0 |
| 20260905231318 | 59 | 236 | 11.3 | 17.4 | 0.00 | 0.01 | 0.00 | 67 | 1034.3 |
| 20260905225923 | 61 | 144 | 9.6 | 17.4 | 0.00 | 0.00 | 0.00 | 68 | 1033.8 |
| 20260905224458 | 59 | 18 | 6.1 | 7.8 | 0.00 | 0.00 | 0.00 | 69 | 1033.3 |
| 20260905223300 | 59 | 43 | 1.7 | 3.5 | 0.00 | 0.00 | 0.00 | 69 | 1033.3 |
| 20260905222029 | 59 | 30 | 0.0 | 0.0 | 0.00 | 0.00 | 0.00 | 74 | 1033.5 |
| 20260905220824 | 59 | 41 | 0.0 | 3.5 | 0.00 | 0.01 | 0.00 | 77 | 1033.3 |
| 20260905215504 | 59 | 40 | 1.7 | 3.5 | 0.00 | 0.01 | 0.01 | 73 | 1033.1 |
| 20260905214048 | 61 | 35 | 0.0 | 0.0 | 0.00 | 0.01 | 0.01 | 72 | 1033.2 |
| 20260905212729 | 57 | 38 | 0.0 | 0.0 | 0.00 | 0.01 | 0.01 | 81 | 1033.2 |
| 20260905211239 | 55 | 57 | 1.7 | 3.5 | 0.00 | 0.01 | 0.01 | 93 | 1032.9 |
| 20260905205744 | 55 | 31 | 0.0 | 0.0 | 0.00 | 0.01 | 0.01 | 93 | 1032.7 |
| 20260905204433 | 55 | 29 | 0.0 | 0.0 | 0.00 | 0.01 | 0.01 | 91 | 1032.9 |
| 20260905203215 | 57 | 36 | 0.0 | 0.0 | 0.00 | 0.01 | 0.01 | 90 | 1032.9 |
| 20260905201916 | 57 | 32 | 0.0 | 0.0 | 0.00 | 0.01 | 0.01 | 86 | 1032.9 |
| 20260905200434 | 57 | 30 | 0.0 | 0.0 | 0.00 | 0.01 | 0.01 | 90 | 1033.1 |
| 20260905194951 | 57 | 31 | 0.0 | 0.0 | 0.00 | 0.01 | 0.01 | 88 | 1032.8 |
| 20260905193704 | 57 | 37 | 0.0 | 3.5 | 0.00 | 0.01 | 0.01 | 87 | 1032.8 |
| 20260905192438 | 57 | 36 | 0.0 | 0.0 | 0.00 | 0.01 | 0.01 | 85 | 1032.7 |
| 20260905191137 | 57 | 36 | 0.0 | 0.0 | 0.00 | 0.01 | 0.01 | 85 | 1032.4 |
| 20260905185842 | 57 | 39 | 0.0 | 0.0 | 0.00 | 0.01 | 0.01 | 85 | 1032.4 |
| 20260905184353 | 57 | 31 | 0.0 | 0.0 | 0.00 | 0.01 | 0.01 | 84 | 1032.1 |
| 20260905183149 | 57 | 29 | 0.0 | 3.5 | 0.00 | 0.01 | 0.01 | 82 | 1032.1 |
| 20260905181816 | 59 | 29 | 0.0 | 0.0 | 0.00 | 0.01 | 0.01 | 76 | 1032.3 |
| 20260905180551 | 59 | 36 | 0.0 | 0.0 | 0.00 | 0.01 | 0.01 | 73 | 1032.2 |
| 20260905175144 | 61 | 38 | 0.0 | 0.0 | 0.00 | 0.01 | 0.01 | 71 | 1031.9 |
| 20260905173827 | 63 | 45 | 0.0 | 0.0 | 0.00 | 0.01 | 0.01 | 67 | 1032.0 |
| 20260905172504 | 64 | 46 | 3.5 | 3.5 | 0.00 | 0.01 | 0.01 | 65 | 1032.0 |
| 20260905171004 | 64 | 41 | 0.0 | 3.5 | 0.00 | 0.01 | 0.01 | 61 | 1031.8 |
| 20260905165739 | 66 | 12 | 7.8 | 7.8 | 0.00 | 0.01 | 0.01 | 59 | 1031.3 |
| 20260905164314 | 66 | 34 | 0.0 | 0.0 | 0.00 | 0.01 | 0.01 | 57 | 1031.6 |
| 20260905162853 | 68 | 12 | 3.5 | 7.8 | 0.00 | 0.01 | 0.01 | 57 | 1031.4 |
| 20260905161453 | 68 | 28 | 6.1 | 7.8 | 0.00 | 0.01 | 0.01 | 56 | 1031.1 |
| 20260905160006 | 70 | 40 | 1.7 | 3.5 | 0.00 | 0.01 | 0.01 | 55 | 1031.1 |
| 20260905154515 | 70 | 13 | 9.6 | 13.9 | 0.00 | 0.01 | 0.01 | 54 | 1031.0 |
| 20260905153244 | 70 | 308 | 15.6 | 17.4 | 0.00 | 0.01 | 0.01 | 53 | 1031.0 |
| 20260905151956 | 72 | 292 | 1.7 | 7.8 | 0.00 | 0.01 | 0.01 | 55 | 1030.9 |
| 20260905150714 | 68 | 26 | 1.7 | 3.5 | 0.00 | 0.01 | 0.01 | 56 | 1031.0 |
| 20260905145319 | 70 | 346 | 17.4 | 21.7 | 0.00 | 0.01 | 0.01 | 55 | 1031.1 |
| 20260905143913 | 70 | 163 | 9.6 | 9.6 | 0.00 | 0.01 | 0.01 | 55 | 1031.0 |
| 20260905142428 | 70 | 2 | 7.8 | 9.6 | 0.00 | 0.01 | 0.01 | 55 | 1030.9 |
| 20260905140926 | 70 | 76 | 6.1 | 9.6 | 0.00 | 0.01 | 0.01 | 55 | 1031.0 |
| 20260905135608 | 72 | 350 | 6.1 | 9.6 | 0.00 | 0.01 | 0.01 | 52 | 1031.1 |
| 20260905134219 | 72 | 337 | 17.4 | 21.7 | 0.00 | 0.01 | 0.01 | 52 | 1030.9 |
| 20260905132719 | 72 | 145 | 9.6 | 17.4 | 0.00 | 0.01 | 0.01 | 51 | 1030.9 |
| 20260905131347 | 70 | 28 | 9.6 | 17.4 | 0.00 | 0.01 | 0.01 | 53 | 1031.1 |
| 20260905125845 | 72 | 27 | 9.6 | 13.9 | 0.00 | 0.01 | 0.01 | 51 | 1031.0 |
| 20260905124644 | 72 | 5 | 25.2 | 33.0 | 0.00 | 0.01 | 0.01 | 53 | 1031.0 |
| 20260905123438 | 70 | 54 | 11.3 | 25.2 | 0.00 | 0.01 | 0.01 | 55 | 1031.2 |
| 20260905122028 | 70 | 345 | 26.9 | 50.4 | 0.00 | 0.01 | 0.01 | 56 | 1031.1 |
| 20260905120801 | 68 | 33 | 11.3 | 17.4 | 0.00 | 0.01 | 0.01 | 61 | 1031.3 |
| 20260905115553 | 68 | 35 | 7.8 | 9.6 | 0.00 | 0.01 | 0.01 | 66 | 1031.3 |
| 20260905114239 | 68 | 73 | 7.8 | 9.6 | 0.00 | 0.01 | 0.01 | 67 | 1031.4 |
| 20260905113026 | 68 | 4 | 7.8 | 9.6 | 0.00 | 0.01 | 0.01 | 67 | 1031.1 |
| 20260905111739 | 66 | 351 | 19.1 | 29.5 | 0.00 | 0.01 | 0.01 | 70 | 1031.6 |
| 20260905110533 | 68 | 227 | 7.8 | 13.9 | 0.00 | 0.01 | 0.01 | 72 | 1031.7 |
| 20260905105306 | 66 | 3 | 11.3 | 17.4 | 0.00 | 0.01 | 0.01 | 78 | 1031.7 |
| 20260905103858 | 63 | 33 | 0.0 | 0.0 | 0.00 | 0.01 | 0.01 | 84 | 1031.6 |
| 20260905102444 | 63 | 172 | 9.6 | 13.9 | 0.00 | 0.01 | 0.01 | 84 | 1031.6 |
| 20260905100943 | 61 | 69 | 3.5 | 7.8 | 0.00 | 0.01 | 0.01 | 86 | 1031.5 |
| 20260905095537 | 61 | 41 | 6.1 | 7.8 | 0.00 | 0.01 | 0.01 | 85 | 1031.2 |
| 20260905094301 | 61 | 26 | 7.8 | 9.6 | 0.00 | 0.01 | 0.01 | 85 | 1030.8 |
| 20260905092825 | 61 | 34 | 0.0 | 0.0 | 0.00 | 0.01 | 0.01 | 86 | 1031.2 |
| 20260905091330 | 61 | 335 | 9.6 | 9.6 | 0.01 | 0.01 | 0.01 | 86 | 1030.2 |
| 20260905085953 | 59 | 45 | 3.5 | 7.8 | 0.01 | 0.01 | 0.01 | 88 | 1031.6 |
| 20260905084509 | 59 | 14 | 9.6 | 13.9 | 0.01 | 0.01 | 0.01 | 88 | 1031.0 |
| 20260905083025 | 59 | 11 | 11.3 | 13.9 | 0.01 | 0.01 | 0.01 | 87 | 1031.0 |
| 20260905081629 | 61 | 350 | 17.4 | 21.7 | 0.00 | 0.00 | 0.01 | 85 | 1031.0 |
| 20260905080307 | 61 | 28 | 9.6 | 13.9 | 0.00 | 0.00 | 0.01 | 83 | 1030.6 |
| 20260905074826 | 63 | 353 | 7.8 | 9.6 | 0.00 | 0.00 | 0.00 | 72 | 1030.5 |
| 20260905073605 | 63 | 26 | 3.5 | 7.8 | 0.00 | 0.00 | 0.00 | 69 | 1029.3 |
| 20260905072324 | 64 | 7 | 33.0 | 46.9 | 0.00 | 0.00 | 0.00 | 67 | 1030.1 |
| 20260905071111 | 64 | 356 | 13.9 | 17.4 | 0.00 | 0.00 | 0.00 | 68 | 1030.2 |
| 20260905065649 | 64 | 29 | 1.7 | 7.8 | 0.00 | 0.00 | 0.00 | 69 | 1029.9 |
| 20260905064215 | 64 | 15 | 6.1 | 7.8 | 0.00 | 0.00 | 0.00 | 72 | 1029.9 |
| 20260905062900 | 64 | 325 | 3.5 | 7.8 | 0.00 | 0.00 | 0.00 | 72 | 1029.2 |
| 20260905061449 | 64 | 33 | 1.7 | 3.5 | 0.00 | 0.00 | 0.00 | 73 | 1029.1 |
| 20260905060030 | 64 | 26 | 6.1 | 7.8 | 0.00 | 0.00 | 0.00 | 73 | 1029.2 |
| 20260905054540 | 64 | 335 | 1.7 | 3.5 | 0.00 | 0.00 | 0.00 | 73 | 1029.4 |
| 20260905053109 | 63 | 343 | 6.1 | 13.9 | 0.00 | 0.00 | 0.00 | 73 | 1029.1 |
| 20260905051740 | 63 | 72 | 3.5 | 7.8 | 0.00 | 0.00 | 0.00 | 75 | 1028.8 |
| 20260905050231 | 63 | 37 | 0.0 | 0.0 | 0.00 | 0.00 | 0.00 | 76 | 1028.3 |
| 20260905044956 | 63 | 30 | 0.0 | 0.0 | 0.00 | 0.00 | 0.00 | 79 | 1028.5 |
| 20260905043529 | 63 | 32 | 0.0 | 0.0 | 0.00 | 0.00 | 0.00 | 81 | 1028.3 |
| 20260905042306 | 61 | 75 | 3.5 | 7.8 | 0.00 | 0.00 | 0.00 | 82 | 1028.4 |
| 20260905040805 | 63 | 40 | 0.0 | 3.5 | 0.00 | 0.00 | 0.00 | 82 | 1028.5 |
| 20260905035516 | 63 | 40 | 1.7 | 3.5 | 0.00 | 0.00 | 0.00 | 82 | 1028.9 |
| 20260905034304 | 63 | 30 | 1.7 | 3.5 | 0.00 | 0.00 | 0.00 | 81 | 1029.0 |
| 20260905033007 | 63 | 11 | 7.8 | 9.6 | 0.00 | 0.00 | 0.00 | 82 | 1029.2 |
| 20260905031635 | 64 | 10 | 7.8 | 9.6 | 0.00 | 0.00 | 0.00 | 78 | 1029.2 |
| 20260905030229 | 64 | 6 | 3.5 | 3.5 | 0.00 | 0.00 | 0.00 | 77 | 1028.8 |
| 20260905024729 | 66 | 17 | 17.4 | 21.7 | 0.00 | 0.00 | 0.00 | 75 | 1028.7 |
| 20260905023506 | 66 | 233 | 11.3 | 17.4 | 0.00 | 0.00 | 0.00 | 74 | 1028.1 |
| 20260905022305 | 66 | 19 | 11.3 | 17.4 | 0.00 | 0.00 | 0.00 | 73 | 1027.9 |
| 20260905020959 | 66 | 41 | 6.1 | 9.6 | 0.00 | 0.00 | 0.00 | 73 | 1027.7 |
| 20260905015659 | 66 | 90 | 3.5 | 3.5 | 0.00 | 0.00 | 0.00 | 71 | 1027.5 |
| 20260905014439 | 66 | 117 | 11.3 | 13.9 | 0.00 | 0.00 | 0.00 | 70 | 1027.4 |
| 20260905013239 | 66 | 20 | 1.7 | 3.5 | 0.00 | 0.00 | 0.00 | 70 | 1026.9 |
| 20260905011849 | 66 | 208 | 7.8 | 13.9 | 0.00 | 0.00 | 0.00 | 69 | 1026.7 |
| 20260905010545 | 66 | 185 | 15.6 | 17.4 | 0.00 | 0.00 | 0.00 | 71 | 1025.3 |
| 20260905005140 | 66 | 88 | 7.8 | 7.8 | 0.00 | 0.00 | 0.00 | 71 | 1025.5 |
| 20260905003909 | 66 | 102 | 7.8 | 9.6 | 0.00 | 0.00 | 0.00 | 70 | 1025.7 |
| 20260905002420 | 68 | 208 | 19.1 | 25.2 | 0.00 | 0.00 | 0.00 | 68 | 1025.5 |
| 20260905000955 | 68 | 193 | 19.1 | 29.5 | 0.00 | 0.00 | 0.00 | 66 | 1025.7 |
| 20260904235621 | 68 | 323 | 13.9 | 17.4 | 0.00 | 0.00 | 0.00 | 66 | 1025.5 |